This is the latest recevied weather packets stored in our database for station/object HB9TJM-8. If no packets are shown the sender has not sent any weather packets the latest 10 day(s).
| Time | Temp. | Humidity | Pressure | Rain* | Wind** | Luminosity | Snow |
|---|---|---|---|---|---|---|---|
| 1777326325 | 13.33° C | 44% | 1017.2 hPa | 0 mm | - | 0 W/m² | - |
| 1777326017 | 13.33° C | 44% | 1017.8 hPa | 0 mm | - | 0 W/m² | - |
| 1777325709 | 13.33° C | 45% | 1017.8 hPa | 0 mm | - | 0 W/m² | - |
| 1777325402 | 13.89° C | 44% | 1017.4 hPa | 0 mm | - | 0 W/m² | - |
| 1777325402 | 13.89° C | 44% | 1017.4 hPa | 0 mm | - | 0 W/m² | - |
| 1777325095 | 13.33° C | 46% | 1017.5 hPa | 0 mm | - | 0 W/m² | - |
| 1777325095 | 13.33° C | 46% | 1017.5 hPa | 0 mm | - | 0 W/m² | - |
| 1777324787 | 13.33° C | 45% | 1017.8 hPa | 0 mm | - | 0 W/m² | - |
| 1777324787 | 13.33° C | 45% | 1017.8 hPa | 0 mm | - | 0 W/m² | - |
| 1777324480 | 13.89° C | 45% | 1017.7 hPa | 0 mm | - | 0 W/m² | - |
| 1777324173 | 13.89° C | 44% | 1018.1 hPa | 0 mm | - | 0 W/m² | - |
| 1777324173 | 13.89° C | 44% | 1018.1 hPa | 0 mm | - | 0 W/m² | - |
| 1777323866 | 13.89° C | 47% | 1017.7 hPa | 0 mm | - | 0 W/m² | - |
| 1777323865 | 13.89° C | 47% | 1017.7 hPa | 0 mm | - | 0 W/m² | - |
| 1777323558 | 13.89° C | 43% | 1017.7 hPa | 0 mm | - | 0 W/m² | - |
| 1777323558 | 13.89° C | 43% | 1017.7 hPa | 0 mm | - | 0 W/m² | - |
| 1777323251 | 13.33° C | 45% | 1017.5 hPa | 0 mm | - | 0 W/m² | - |
| 1777323251 | 13.33° C | 45% | 1017.5 hPa | 0 mm | - | 0 W/m² | - |
| 1777322944 | 13.89° C | 47% | 1017.7 hPa | 0 mm | - | 0 W/m² | - |
| 1777322944 | 13.89° C | 47% | 1017.7 hPa | 0 mm | - | 0 W/m² | - |
| 1777322636 | 13.33° C | 46% | 1017.8 hPa | 0 mm | - | 0 W/m² | - |
| 1777322636 | 13.33° C | 46% | 1017.8 hPa | 0 mm | - | 0 W/m² | - |
| 1777322329 | 13.89° C | 48% | 1017.6 hPa | 0 mm | - | 0 W/m² | - |
| 1777322329 | 13.89° C | 48% | 1017.6 hPa | 0 mm | - | 0 W/m² | - |
| 1777322022 | 13.33° C | 49% | 1018.3 hPa | 0 mm | - | 0 W/m² | - |
* Rain latest hour (hover to see other rain measurements)
** Current wind speed in m/s (hover to see current wind gust speed)